This demonstration page uses our WeatherBlox Daily Observations layout. Learn more.

Left ArrowRight Arrow

39.12711, -84.51439

Hourly Observations for December 23, 2018

Temp ( °F °C ) Dew Point ( °F °C ) Humidity (%) Winds ( mph kmh ) Pressure ( in mb ) Visibility ( mi km ) Precip ( " mm )
12:12 am 00:12 Clear with Mist and Fog 29 -1.7 28 -2.2 96 96 Calm 30.15 1021 1 2 0.00 0.00
12:20 am 00:20 Clear with Freezing Fog 29 -1.7 28 -2.2 96 96 Calm 30.15 1021 1 1 0.00 0.00
12:44 am 00:44 Clear with Mist and Fog 30 -1.1 28 -2.2 92 92 Calm 30.15 1021 3 4 0.00 0.00
12:51 am 00:51 Clear with Mist and Fog 30 -1 28 -2 93 93 Calm 30.15 1021 3 5 0.00 0.00
12:53 am 00:53 Clear with Mist and Fog 31 -0.6 29 -1.7 92 92 Calm 30.14 1021 2 3 0.00 0.00
12:58 am 00:58 Clear with Mist and Fog 31 -0.6 30 -1.1 96 96 Calm 30.15 1021 1 1 0.00 0.00
1:09 am 01:09 Clear with Freezing Fog 30 -1.1 29 -1.7 96 96 Calm 30.15 1021 0 0 0.00 0.00
1:40 am 01:40 Mostly Cloudy with Freezing Fog 29 -1.7 28 -2.2 96 96 Calm 30.15 1021 0 0 0.00 0.00
1:49 am 01:49 Mostly Cloudy with Freezing Fog 28 -2 27 -3 93 93 Calm 30.15 1021 0 0 0.00 0.00
1:53 am 01:53 Mostly Cloudy with Freezing Fog 28 -2.2 27 -2.8 96 96 Calm 30.14 1021 0 0 0.00 0.00
2:04 am 02:04 Clear with Freezing Fog 29 -1.7 27 -2.8 92 92 Calm 30.15 1021 1 1 0.00 0.00
2:12 am 02:12 Mostly Cloudy with Freezing Fog 28 -2.2 27 -2.8 96 96 Calm 30.15 1021 0 0 0.00 0.00
2:21 am 02:21 Clear with Freezing Fog 29 -1.7 28 -2.2 96 96 Calm 30.15 1021 1 1 0.00 0.00
2:34 am 02:34 Clear with Freezing Fog 28 -2.2 27 -2.8 96 96 Calm 30.15 1021 0 0 0.00 0.00
2:49 am 02:49 Clear with Mist and Fog 28 -2 27 -3 93 93 Calm 30.15 1021 1 1 0.00 0.00
2:53 am 02:53 Clear with Mist and Fog 28 -2.2 27 -2.8 96 96 Calm 30.13 1020 1 1 0.00 0.00
3:05 am 03:05 Clear with Mist and Fog 28 -2.2 27 -2.8 96 96 Calm 30.15 1021 1 2 0.00 0.00
3:12 am 03:12 Clear with Freezing Fog 28 -2.2 27 -2.8 96 96 Calm 30.15 1021 1 1 0.00 0.00
3:44 am 03:44 Clear with Freezing Fog 28 -2.2 26 -3.3 92 92 Calm 30.15 1021 0 0 0.00 0.00
3:53 am 03:53 Clear with Mist and Fog 29 -1.7 27 -2.8 92 92 Calm 30.12 1020 1 1 0.00 0.00
4:00 am 04:00 Clear with Mist and Fog 27 -2.8 26 -3.3 96 96 Calm 30.12 1020 2 3 0.00 0.00
4:02 am 04:02 Clear with Mist and Fog 28 -2.2 26 -3.3 92 92 Calm 30.12 1020 3 5 0.00 0.00
4:53 am 04:53 Clear 30 -1.1 28 -2.2 92 92 WSW 3 6 30.10 1019 7 11 0.00 0.00
5:45 am 05:45 Clear with Mist and Fog 29 -1.7 28 -2.2 96 96 Calm 30.12 1020 2 3 0.00 0.00
5:53 am 05:53 Clear with Mist and Fog 30 -1.1 28 -2.2 92 92 Calm 30.10 1019 1 2 0.00 0.00
5:59 am 05:59 Mostly Cloudy with Mist and Fog 27 -2.8 27 -2.8 100 100 Calm 30.12 1020 1 1 0.00 0.00
6:08 am 06:08 Mostly Cloudy with Freezing Fog 27 -2.8 25 -3.9 92 92 Calm 30.12 1020 0 0 0.00 0.00
6:20 am 06:20 Mostly Cloudy with Freezing Fog 29 -1.7 27 -2.8 92 92 Calm 30.12 1020 1 1 0.00 0.00
6:39 am 06:39 Mostly Cloudy with Freezing Fog 26 -3.3 25 -3.9 96 96 Calm 30.12 1020 0 0 0.00 0.00
6:53 am 06:53 Clear with Fog 27 -2.8 26 -3.3 96 96 Calm 30.12 1020 7 11 0.00 0.00
7:53 am 07:53 Clear with Patchy Fog 27 -2.8 25 -3.9 92 92 Calm 30.12 1020 4 6 0.00 0.00
8:53 am 08:53 Mostly Cloudy 30 -1.1 30 -1.1 100 100 Calm 30.14 1021 7 11 0.00 0.00
9:53 am 09:53 Cloudy with Mist and Fog 32 0 31 -0.6 96 96 Calm 30.14 1021 5 8 0.00 0.00
10:53 am 10:53 Cloudy with Mist and Fog 33 0.6 31 -0.6 92 92 SW 3 6 30.14 1021 5 8 0.00 0.00
11:53 am 11:53 Cloudy 35 1.7 33 0.6 93 93 Calm 30.11 1020 9 14 0.00 0.00
12:53 pm 12:53 Cloudy 39 3.9 33 0.6 79 79 Calm 30.07 1018 10 16 0.00 0.00
1:53 pm 13:53 Cloudy 39 3.9 34 1.1 82 82 Calm 30.06 1018 10 16 0.00 0.00
2:33 pm 14:33 Cloudy 41 5 33 0.6 73 73 NNW 8 13 30.06 1018 8 13 0.00 0.00
2:53 pm 14:53 Cloudy 40 4.4 33 0.6 77 77 NNW 10 17 30.07 1018 7 11 0.00 0.00
3:30 pm 15:30 Cloudy with Haze 38 3.3 32 0 79 79 NNW 9 15 30.06 1018 6 10 0.00 0.00
3:53 pm 15:53 Cloudy with Haze 37 2.8 32 0 82 82 NNW 10 17 30.09 1019 5 8 0.00 0.00
4:53 pm 16:53 Cloudy with Haze 37 2.8 31 -0.6 79 79 Calm 30.12 1020 6 10 0.00 0.00
5:53 pm 17:53 Cloudy 36 2.2 30 -1.1 79 79 VRB 5 7 30.15 1021 7 11 0.00 0.00
6:53 pm 18:53 Cloudy 35 1.7 29 -1.7 78 78 WNW 9 15 30.18 1022 9 14 0.00 0.00
7:53 pm 19:53 Cloudy 35 1.7 29 -1.7 78 78 W 9 15 30.21 1023 10 16 0.00 0.00
8:53 pm 20:53 Cloudy 36 2.2 29 -1.7 76 76 W 7 11 30.22 1023 10 16 0.00 0.00
9:53 pm 21:53 Mostly Cloudy 36 2.2 29 -1.7 76 76 W 6 9 30.24 1024 10 16 0.00 0.00
10:53 pm 22:53 Clear 33 0.6 28 -2.2 82 82 WSW 8 13 30.26 1025 10 16 0.00 0.00
11:53 pm 23:53 Partly Cloudy 32 0 27 -2.8 82 82 SW 6 9 30.27 1025 10 16 0.00 0.00

Powered by AerisWeather